Content
SEND FEEDBACK

Daily
Averages
Monthly
Summary
Australia

DOONSIDE, NEW SOUTH WALES


Home > Oceania > Australia > New South Wales
Elevation: 164 feet     Latitude: 33 46S     Longitude: 150 55E

WEATHER
 
SELECT A DAY
Number of Records: 228,842;   Date Range: 2/21/97 - 8/10/14
 
SHARE

PRINT THIS DATA

[ ← Previous Day ]
WEATHER ALMANAC - FEBRUARY 13, 2013
[ Next Day → ]
[ °C ]   °F
Weather ElementAverageHighLow
Temperature70.3 °F77 °F (2:30 pm)66.2 °F (1:00 am)
Dewpoint59.2 °F62.6 °F (5:00 pm)55.4 °F (9:00 am)
Humidity68.3 %83 % (11:30 pm)53 % (5:30 pm)
Barometer29.54 in30.24 in (9:00 am) (7:00 pm)
Wind Speed5.8 mph12.7 mph (4:30 pm)
Weather ElementAverage
Visibility6.2 mi
Wind DirectionESE (123.6 °)

Weather ElementTotal
Precipitation---
Cooling Degree Days6.6 (Base 65)
Growing Degree Days21.6 (Base 50)
Averaged from 47 records on February 13, 2013
WEATHER CONDITIONS BREAKOUT
WIND DIRECTION BREAKOUT
WEATHER BY HOUR - FEBRUARY 13, 2013
[ °C ]   °F
Local TimeTemperatureDewpointHumidityBarometerVisibilityWind DirectionWind SpeedGust SpeedPrecipitationEventsConditions
12:30 AM68.0 °F59.0 °F73 %30.18 in6.2 miSSW (200°)5.8 mphOvercast
1:00 AM66.2 °F59.0 °F78 %30.18 in6.2 miSSW (200°)5.8 mphOvercast
1:30 AM66.2 °F59.0 °F78 %30.18 in6.2 miSouth (170°)5.8 mphOvercast
2:00 AM66.2 °F59.0 °F78 %30.18 in6.2 miSouth (190°)5.8 mphOvercast
2:30 AM66.2 °F59.0 °F78 %30.15 in6.2 miSW (220°)4.6 mphOvercast
3:00 AM66.2 °F59.0 °F78 %30.15 in6.2 miSW (230°)3.5 mphOvercast
3:30 AM66.2 °F59.0 °F78 %30.15 in6.2 miSSW (210°)2.3 mphOvercast
4:00 AM66.2 °F59.0 °F78 %30.18 in6.2 miSSW (200°)3.5 mphOvercast
4:30 AM66.2 °F59.0 °F78 %30.18 in6.2 miCalmOvercast
5:00 AM66.2 °F59.0 °F78 %30.18 in6.2 miCalmOvercast
5:30 AM66.2 °F57.2 °F73 %30.18 in6.2 miSSW (210°)1.2 mphOvercast
6:00 AM66.2 °F57.2 °F73 %30.18 in6.2 miSSW (210°)5.8 mphOvercast
6:30 AM66.2 °F57.2 °F73 %30.18 in6.2 miSSW (200°)5.8 mphOvercast
7:00 AM66.2 °F57.2 °F73 %30.18 in6.2 miSSW (210°)5.8 mphOvercast
7:30 AM66.2 °F57.2 °F73 %30.21 in6.2 miSSW (210°)5.8 mphOvercast
8:00 AM66.2 °F57.2 °F73 %30.21 in6.2 miSSW (210°)5.8 mphOvercast
8:30 AM68.0 °F57.2 °F68 %30.21 in6.2 miSSW (210°)9.2 mphOvercast
9:00 AM68.0 °F55.4 °F64 %30.24 in6.2 miSSW (200°)6.9 mphMostly Cloudy
9:30 AM69.8 °F57.2 °F64 %30.24 in6.2 miSouth (180°)4.6 mphMostly Cloudy
10:00 AM71.6 °F57.2 °F60 %30.24 in6.2 miSouth (170°)8.1 mphScattered Clouds
10:30 AM73.4 °F59.0 °F61 %30.24 in6.2 miSouth (170°)4.6 mphScattered Clouds
11:00 AM75.2 °F60.8 °F61 %6.2 miESE (110°)5.8 mphScattered Clouds
11:30 AM73.4 °F59.0 °F61 %30.21 in6.2 miESE (110°)4.6 mphMostly Cloudy
12:00 PM73.4 °F59.0 °F61 %30.21 in6.2 miSouth (180°)6.9 mphOvercast
12:30 PM75.2 °F59.0 °F57 %30.21 in6.2 miSSE (150°)5.8 mphOvercast
1:00 PM75.2 °F59.0 °F57 %30.21 in6.2 miESE (120°)9.2 mphOvercast
1:30 PM75.2 °F59.0 °F57 %30.18 in6.2 miESE (120°)6.9 mphOvercast
2:00 PM73.4 °F60.8 °F65 %30.18 in6.2 miENE (70°)9.2 mphOvercast
2:30 PM77.0 °F59.0 °F54 %30.18 in6.2 miENE (70°)8.1 mphOvercast
3:00 PM77.0 °F60.8 °F57 %30.18 in6.2 miEast (100°)8.1 mphMostly Cloudy
3:30 PM75.2 °F60.8 °F61 %30.15 in6.2 miNE (50°)10.4 mphOvercast
4:00 PM75.2 °F60.8 °F61 %30.15 in6.2 miENE (70°)8.1 mphOvercast
4:30 PM73.4 °F59.0 °F61 %30.15 in6.2 miEast (90°)12.7 mphOvercast
5:00 PM75.2 °F62.6 °F65 %30.15 in6.2 miEast (80°)9.2 mphOvercast
5:30 PM75.2 °F57.2 °F53 %30.15 in6.2 miEast (80°)6.9 mphMostly Cloudy
6:00 PM75.2 °F59.0 °F57 %30.15 in6.2 miESE (110°)12.7 mphOvercast
6:30 PM73.4 °F60.8 °F65 %30.15 in6.2 miESE (110°)12.7 mphOvercast
7:00 PM73.4 °F60.8 °F65 %30.15 in6.2 miEast (90°)9.2 mphOvercast
7:30 PM71.6 °F59.0 °F64 %30.15 in6.2 miEast (90°)10.4 mphOvercast
8:00 PM69.8 °F59.0 °F68 %30.15 in6.2 miENE (70°)8.1 mphOvercast
8:30 PM69.8 °F59.0 °F68 %30.18 in6.2 miENE (70°)3.5 mphOvercast
9:00 PM69.8 °F60.8 °F73 %30.18 in6.2 miENE (70°)1.2 mphOvercast
9:30 PM69.8 °F60.8 °F73 %30.18 in6.2 miCalmOvercast
10:00 PM68.0 °F60.8 °F78 %30.21 in6.2 miCalmOvercast
10:30 PM68.0 °F60.8 °F78 %30.21 in6.2 miCalmOvercast
11:00 PM68.0 °F60.8 °F78 %30.21 in6.2 miCalmOvercast
11:30 PM68.0 °F62.6 °F83 %30.21 in6.2 miCalmOvercast
Hourly data recorded from YSRI, located miles away from Doonside, New South Wales







STORIES FROM OUR PARTNERS